owner,sensor,date,latitude,longitude,vertical_datum,wind_speed,wind_to_direction,wind_speed_of_gust,qcFlag 
DISL,ioos:station:DISL:CATA:1,2011-04-08T17:30:00Z,30.3085,-88.1395,0.0,1.4,235.9,-9999.0,'1111122,1111122,1111122' 
DISL,ioos:station:DISL:CATA:1,2011-04-08T18:00:00Z,30.3085,-88.1395,0.0,3.05,186.7,-9999.0,'1111122,1111122,1111122' 
DISL,ioos:station:DISL:CATA:1,2011-04-08T18:30:00Z,30.3085,-88.1395,0.0,1.58,137.0,-9999.0,'1111122,1111122,1111122' 
DISL,ioos:station:DISL:CATA:1,2011-04-08T19:00:00Z,30.3085,-88.1395,0.0,2.62,197.8,-9999.0,'1111122,1111122,1111122' 
DISL,ioos:station:DISL:CATA:1,2011-04-08T19:30:00Z,30.3085,-88.1395,0.0,3.32,177.8,-9999.0,'1111122,1111122,1111122' 
DISL,ioos:station:DISL:CATA:1,2011-04-08T20:00:00Z,30.3085,-88.1395,0.0,1.77,158.8,-9999.0,'1111122,1111122,1111122' 
DISL,ioos:station:DISL:CATA:1,2011-04-08T20:30:00Z,30.3085,-88.1395,0.0,1.98,133.5,-9999.0,'1111122,1111122,1111122' 
DISL,ioos:station:DISL:CATA:1,2011-04-08T21:00:00Z,30.3085,-88.1395,0.0,4.07,175.1,-9999.0,'1111122,1111122,1111122' 
DISL,ioos:station:DISL:CATA:1,2011-04-08T21:30:00Z,30.3085,-88.1395,0.0,4.41,165.0,-9999.0,'1111122,1111122,1111122' 
DISL,ioos:station:DISL:CATA:1,2011-04-08T22:00:00Z,30.3085,-88.1395,0.0,4.22,160.5,-9999.0,'1111122,1111122,1111122' 
DISL,ioos:station:DISL:CATA:1,2011-04-08T22:30:00Z,30.3085,-88.1395,0.0,4.56,163.2,-9999.0,'1111122,1111122,1111122' 
DISL,ioos:station:DISL:CATA:1,2011-04-08T23:00:00Z,30.3085,-88.1395,0.0,2.98,148.9,-9999.0,'1111122,1111122,1111122' 
DISL,ioos:station:DISL:CATA:1,2011-04-08T23:30:00Z,30.3085,-88.1395,0.0,4.27,156.4,-9999.0,'1111122,1111122,1111122' 
DISL,ioos:station:DISL:CATA:1,2011-04-09T00:00:00Z,30.3085,-88.1395,0.0,4.79,161.4,-9999.0,'1111122,1111122,1111122' 
DISL,ioos:station:DISL:CATA:1,2011-04-09T00:30:00Z,30.3085,-88.1395,0.0,4.87,150.6,-9999.0,'1111122,1111122,1111122' 
DISL,ioos:station:DISL:CATA:1,2011-04-09T01:00:00Z,30.3085,-88.1395,0.0,5.97,161.5,-9999.0,'1111122,1111122,1111122' 
DISL,ioos:station:DISL:CATA:1,2011-04-09T01:30:00Z,30.3085,-88.1395,0.0,4.71,166.1,-9999.0,'1111122,1111122,1111122' 
DISL,ioos:station:DISL:CATA:1,2011-04-09T02:00:00Z,30.3085,-88.1395,0.0,4.9,165.5,-9999.0,'1111122,1111122,1111122' 
DISL,ioos:station:DISL:CATA:1,2011-04-09T02:30:00Z,30.3085,-88.1395,0.0,5.03,169.2,-9999.0,'1111122,1111122,1111122' 
DISL,ioos:station:DISL:CATA:1,2011-04-09T03:00:00Z,30.3085,-88.1395,0.0,5.47,167.4,-9999.0,'1111122,1111122,1111122' 
DISL,ioos:station:DISL:CATA:1,2011-04-09T03:30:00Z,30.3085,-88.1395,0.0,6.34,171.6,-9999.0,'1111122,1111122,1111122' 
DISL,ioos:station:DISL:CATA:1,2011-04-09T04:00:00Z,30.3085,-88.1395,0.0,5.07,170.3,-9999.0,'1111122,1111122,1111122' 
DISL,ioos:station:DISL:CATA:1,2011-04-09T04:30:00Z,30.3085,-88.1395,0.0,4.74,168.6,-9999.0,'1111122,1111122,1111122' 
DISL,ioos:station:DISL:CATA:1,2011-04-09T05:00:00Z,30.3085,-88.1395,0.0,4.83,167.2,-9999.0,'1111122,1111122,1111122' 
DISL,ioos:station:DISL:CATA:1,2011-04-09T05:30:00Z,30.3085,-88.1395,0.0,3.96,167.1,-9999.0,'1111122,1111122,1111122' 
DISL,ioos:station:DISL:CATA:1,2011-04-09T06:00:00Z,30.3085,-88.1395,0.0,3.79,153.8,-9999.0,'1111122,1111122,1111122' 
DISL,ioos:station:DISL:CATA:1,2011-04-09T06:30:00Z,30.3085,-88.1395,0.0,2.15,139.7,-9999.0,'1111122,1111122,1111122' 
DISL,ioos:station:DISL:CATA:1,2011-04-09T07:00:00Z,30.3085,-88.1395,0.0,3.24,160.6,-9999.0,'1111122,1111122,1111122' 
DISL,ioos:station:DISL:CATA:1,2011-04-09T07:30:00Z,30.3085,-88.1395,0.0,2.84,157.2,-9999.0,'1111122,1111122,1111122' 
DISL,ioos:station:DISL:CATA:1,2011-04-09T08:00:00Z,30.3085,-88.1395,0.0,1.77,145.5,-9999.0,'1111122,1111122,1111122' 
DISL,ioos:station:DISL:CATA:1,2011-04-09T08:30:00Z,30.3085,-88.1395,0.0,1.66,121.1,-9999.0,'1111122,1111122,1111122' 
DISL,ioos:station:DISL:CATA:1,2011-04-09T09:00:00Z,30.3085,-88.1395,0.0,1.22,121.7,-9999.0,'1111122,1111122,1111122' 
DISL,ioos:station:DISL:CATA:1,2011-04-09T09:30:00Z,30.3085,-88.1395,0.0,2.3,161.9,-9999.0,'1111122,1111122,1111122' 
DISL,ioos:station:DISL:CATA:1,2011-04-09T10:00:00Z,30.3085,-88.1395,0.0,1.2,103.7,-9999.0,'1111122,1111122,1111122' 
DISL,ioos:station:DISL:CATA:1,2011-04-09T10:30:00Z,30.3085,-88.1395,0.0,1.59,99.7,-9999.0,'1111122,1111122,1111122' 
DISL,ioos:station:DISL:CATA:1,2011-04-09T11:00:00Z,30.3085,-88.1395,0.0,1.66,99.7,-9999.0,'1111122,1111122,1111122' 
DISL,ioos:station:DISL:CATA:1,2011-04-09T11:30:00Z,30.3085,-88.1395,0.0,1.98,99.1,-9999.0,'1111122,1111122,1111122' 
DISL,ioos:station:DISL:CATA:1,2011-04-09T12:00:00Z,30.3085,-88.1395,0.0,1.31,108.7,-9999.0,'1111122,1111122,1111122' 
DISL,ioos:station:DISL:CATA:1,2011-04-09T12:30:00Z,30.3085,-88.1395,0.0,1.85,70.13,-9999.0,'1111122,1111122,1111122' 
DISL,ioos:station:DISL:CATA:1,2011-04-09T13:00:00Z,30.3085,-88.1395,0.0,2.3,84.5,-9999.0,'1111122,1111122,1111122' 
DISL,ioos:station:DISL:CATA:1,2011-04-09T13:30:00Z,30.3085,-88.1395,0.0,1.82,58.15,-9999.0,'1111122,1111122,1111122' 
DISL,ioos:station:DISL:CATA:1,2011-04-09T14:00:00Z,30.3085,-88.1395,0.0,2.38,81.4,-9999.0,'1111122,1111122,1111122' 
DISL,ioos:station:DISL:CATA:1,2011-04-09T14:30:00Z,30.3085,-88.1395,0.0,2.37,112.0,-9999.0,'1111122,1111122,1111122' 
DISL,ioos:station:DISL:CATA:1,2011-04-09T15:00:00Z,30.3085,-88.1395,0.0,3.02,104.1,-9999.0,'1111122,1111122,1111122' 
DISL,ioos:station:DISL:CATA:1,2011-04-09T15:30:00Z,30.3085,-88.1395,0.0,2.7,113.1,-9999.0,'1111122,1111122,1111122' 
DISL,ioos:station:DISL:CATA:1,2011-04-09T16:00:00Z,30.3085,-88.1395,0.0,2.69,114.7,-9999.0,'1111122,1111122,1111122' 
DISL,ioos:station:DISL:CATA:1,2011-04-09T16:30:00Z,30.3085,-88.1395,0.0,2.29,102.7,-9999.0,'1111122,1111122,1111122' 
DISL,ioos:station:DISL:CATA:1,2011-04-09T17:00:00Z,30.3085,-88.1395,0.0,2.98,124.0,-9999.0,'1111122,1111122,1111122' 
DISL,ioos:station:DISL:CATA:1,2011-04-09T17:30:00Z,30.3085,-88.1395,0.0,2.69,123.1,-9999.0,'1111122,1111122,1111122' 
DISL,ioos:station:DISL:CATA:1,2011-04-09T18:00:00Z,30.3085,-88.1395,0.0,3.52,130.2,-9999.0,'1111122,1111122,1111122' 
DISL,ioos:station:DISL:CATA:1,2011-04-09T18:30:00Z,30.3085,-88.1395,0.0,4.72,142.9,-9999.0,'1111122,1111122,1111122' 
DISL,ioos:station:DISL:CATA:1,2011-04-09T19:00:00Z,30.3085,-88.1395,0.0,4.93,142.9,-9999.0,'1111122,1111122,1111122' 
DISL,ioos:station:DISL:CATA:1,2011-04-09T19:30:00Z,30.3085,-88.1395,0.0,4.57,148.2,-9999.0,'1111122,1111122,1111122' 
DISL,ioos:station:DISL:CATA:1,2011-04-09T20:00:00Z,30.3085,-88.1395,0.0,5.16,148.7,-9999.0,'1111122,1111122,1111122' 
DISL,ioos:station:DISL:CATA:1,2011-04-09T20:30:00Z,30.3085,-88.1395,0.0,5.37,146.5,-9999.0,'1111122,1111122,1111122' 
DISL,ioos:station:DISL:CATA:1,2011-04-09T21:00:00Z,30.3085,-88.1395,0.0,5.79,168.4,-9999.0,'1111122,1111122,1111122' 
DISL,ioos:station:DISL:CATA:1,2011-04-09T21:30:00Z,30.3085,-88.1395,0.0,6.11,168.9,-9999.0,'1111122,1111122,1111122' 
DISL,ioos:station:DISL:CATA:1,2011-04-09T22:00:00Z,30.3085,-88.1395,0.0,4.71,165.3,-9999.0,'1111122,1111122,1111122' 
DISL,ioos:station:DISL:CATA:1,2011-04-09T22:30:00Z,30.3085,-88.1395,0.0,4.83,163.1,-9999.0,'1111122,1111122,1111122' 
DISL,ioos:station:DISL:CATA:1,2011-04-09T23:00:00Z,30.3085,-88.1395,0.0,5.42,168.2,-9999.0,'1111122,1111122,1111122' 
DISL,ioos:station:DISL:CATA:1,2011-04-09T23:30:00Z,30.3085,-88.1395,0.0,4.88,163.6,-9999.0,'1111122,1111122,1111122' 
DISL,ioos:station:DISL:CATA:1,2011-04-10T00:00:00Z,30.3085,-88.1395,0.0,4.5,164.6,-9999.0,'1111122,1111122,1111122' 
DISL,ioos:station:DISL:CATA:1,2011-04-10T00:30:00Z,30.3085,-88.1395,0.0,4.99,167.4,-9999.0,'1111122,1111122,1111122' 
DISL,ioos:station:DISL:CATA:1,2011-04-10T01:00:00Z,30.3085,-88.1395,0.0,3.86,159.9,-9999.0,'1111122,1111122,1111122' 
DISL,ioos:station:DISL:CATA:1,2011-04-10T01:30:00Z,30.3085,-88.1395,0.0,3.9,145.3,-9999.0,'1111122,1111122,1111122' 
DISL,ioos:station:DISL:CATA:1,2011-04-10T02:00:00Z,30.3085,-88.1395,0.0,4.27,149.1,-9999.0,'1111122,1111122,1111122' 
DISL,ioos:station:DISL:CATA:1,2011-04-10T02:30:00Z,30.3085,-88.1395,0.0,5.15,155.9,-9999.0,'1111122,1111122,1111122' 
DISL,ioos:station:DISL:CATA:1,2011-04-10T03:00:00Z,30.3085,-88.1395,0.0,6.3,166.1,-9999.0,'1111122,1111122,1111122' 
DISL,ioos:station:DISL:CATA:1,2011-04-10T03:30:00Z,30.3085,-88.1395,0.0,5.97,162.8,-9999.0,'1111122,1111122,1111122' 
DISL,ioos:station:DISL:CATA:1,2011-04-10T04:00:00Z,30.3085,-88.1395,0.0,5.99,170.0,-9999.0,'1111122,1111122,1111122' 
DISL,ioos:station:DISL:CATA:1,2011-04-10T04:30:00Z,30.3085,-88.1395,0.0,6.2,176.2,-9999.0,'1111122,1111122,1111122' 
DISL,ioos:station:DISL:CATA:1,2011-04-10T05:00:00Z,30.3085,-88.1395,0.0,6.01,177.0,-9999.0,'1111122,1111122,1111122' 
DISL,ioos:station:DISL:CATA:1,2011-04-10T05:30:00Z,30.3085,-88.1395,0.0,5.94,180.9,-9999.0,'1111122,1111122,1111122' 
DISL,ioos:station:DISL:CATA:1,2011-04-10T06:00:00Z,30.3085,-88.1395,0.0,6.42,184.1,-9999.0,'1111122,1111122,1111122' 
DISL,ioos:station:DISL:CATA:1,2011-04-10T06:30:00Z,30.3085,-88.1395,0.0,5.93,180.5,-9999.0,'1111122,1111122,1111122' 
DISL,ioos:station:DISL:CATA:1,2011-04-10T07:00:00Z,30.3085,-88.1395,0.0,5.47,185.6,-9999.0,'1111122,1111122,1111122' 
DISL,ioos:station:DISL:CATA:1,2011-04-10T07:30:00Z,30.3085,-88.1395,0.0,4.51,183.9,-9999.0,'1111122,1111122,1111122' 
DISL,ioos:station:DISL:CATA:1,2011-04-10T08:00:00Z,30.3085,-88.1395,0.0,4.79,186.8,-9999.0,'1111122,1111122,1111122' 
DISL,ioos:station:DISL:CATA:1,2011-04-10T08:30:00Z,30.3085,-88.1395,0.0,4.59,195.1,-9999.0,'1111122,1111122,1111122' 
DISL,ioos:station:DISL:CATA:1,2011-04-10T09:00:00Z,30.3085,-88.1395,0.0,4.72,196.8,-9999.0,'1111122,1111122,1111122' 
DISL,ioos:station:DISL:CATA:1,2011-04-10T09:30:00Z,30.3085,-88.1395,0.0,3.62,202.4,-9999.0,'1111122,1111122,1111122' 
DISL,ioos:station:DISL:CATA:1,2011-04-10T10:00:00Z,30.3085,-88.1395,0.0,3.55,188.4,-9999.0,'1111122,1111122,1111122' 
DISL,ioos:station:DISL:CATA:1,2011-04-10T10:30:00Z,30.3085,-88.1395,0.0,4.1,179.9,-9999.0,'1111122,1111122,1111122' 
DISL,ioos:station:DISL:CATA:1,2011-04-10T11:00:00Z,30.3085,-88.1395,0.0,3.82,182.6,-9999.0,'1111122,1111122,1111122' 
DISL,ioos:station:DISL:CATA:1,2011-04-10T11:30:00Z,30.3085,-88.1395,0.0,3.27,185.1,-9999.0,'1111122,1111122,1111122' 
DISL,ioos:station:DISL:CATA:1,2011-04-10T12:00:00Z,30.3085,-88.1395,0.0,4.8,177.4,-9999.0,'1111122,1111122,1111122' 
DISL,ioos:station:DISL:CATA:1,2011-04-10T12:30:00Z,30.3085,-88.1395,0.0,3.07,187.1,-9999.0,'1111122,1111122,1111122' 
DISL,ioos:station:DISL:CATA:1,2011-04-10T13:00:00Z,30.3085,-88.1395,0.0,1.59,191.3,-9999.0,'1111122,1111122,1111122' 
DISL,ioos:station:DISL:CATA:1,2011-04-10T13:30:00Z,30.3085,-88.1395,0.0,0.89,185.0,-9999.0,'1111122,1111122,1111122' 
DISL,ioos:station:DISL:CATA:1,2011-04-10T14:00:00Z,30.3085,-88.1395,0.0,3.42,128.8,-9999.0,'1111122,1111122,1111122' 
DISL,ioos:station:DISL:CATA:1,2011-04-10T14:30:00Z,30.3085,-88.1395,0.0,2.61,119.9,-9999.0,'1111122,1111122,1111122' 
DISL,ioos:station:DISL:CATA:1,2011-04-10T15:00:00Z,30.3085,-88.1395,0.0,2.49,125.1,-9999.0,'1111122,1111122,1111122' 
DISL,ioos:station:DISL:CATA:1,2011-04-10T15:30:00Z,30.3085,-88.1395,0.0,3.44,127.7,-9999.0,'1111122,1111122,1111122' 
DISL,ioos:station:DISL:CATA:1,2011-04-10T16:00:00Z,30.3085,-88.1395,0.0,3.46,128.1,-9999.0,'1111122,1111122,1111122' 
DISL,ioos:station:DISL:CATA:1,2011-04-10T16:30:00Z,30.3085,-88.1395,0.0,4.28,132.0,-9999.0,'1111122,1111122,1111122' 
DISL,ioos:station:DISL:CATA:1,2011-04-10T17:00:00Z,30.3085,-88.1395,0.0,3.74,126.6,-9999.0,'1111122,1111122,1111122' 
DISL,ioos:station:DISL:CATA:1,2011-04-10T17:30:00Z,30.3085,-88.1395,0.0,4.54,130.1,-9999.0,'1111122,1111122,1111122' 
DISL,ioos:station:DISL:CATA:1,2011-04-10T18:00:00Z,30.3085,-88.1395,0.0,5.11,136.2,-9999.0,'1111122,1111122,1111122' 
DISL,ioos:station:DISL:CATA:1,2011-04-10T18:30:00Z,30.3085,-88.1395,0.0,5.03,134.8,-9999.0,'1111122,1111122,1111122' 
DISL,ioos:station:DISL:CATA:1,2011-04-10T19:00:00Z,30.3085,-88.1395,0.0,5.17,159.5,-9999.0,'1111122,1111122,1111122' 
DISL,ioos:station:DISL:CATA:1,2011-04-10T19:30:00Z,30.3085,-88.1395,0.0,6.0,163.5,-9999.0,'1111122,1111122,1111122' 
DISL,ioos:station:DISL:CATA:1,2011-04-10T20:00:00Z,30.3085,-88.1395,0.0,6.27,165.0,-9999.0,'1111122,1111122,1111122' 
DISL,ioos:station:DISL:CATA:1,2011-04-10T20:30:00Z,30.3085,-88.1395,0.0,6.72,168.0,-9999.0,'1111122,1111122,1111122' 
DISL,ioos:station:DISL:CATA:1,2011-04-10T21:00:00Z,30.3085,-88.1395,0.0,6.68,165.4,-9999.0,'1111122,1111122,1111122' 
DISL,ioos:station:DISL:CATA:1,2011-04-10T21:30:00Z,30.3085,-88.1395,0.0,7.46,164.5,-9999.0,'1111122,1111122,1111122' 
DISL,ioos:station:DISL:CATA:1,2011-04-10T22:00:00Z,30.3085,-88.1395,0.0,6.52,163.4,-9999.0,'1111122,1111122,1111122' 
DISL,ioos:station:DISL:CATA:1,2011-04-10T22:30:00Z,30.3085,-88.1395,0.0,6.14,161.4,-9999.0,'1111122,1111122,1111122' 
DISL,ioos:station:DISL:CATA:1,2011-04-10T23:00:00Z,30.3085,-88.1395,0.0,6.66,160.8,-9999.0,'1111122,1111122,1111122' 
DISL,ioos:station:DISL:CATA:1,2011-04-10T23:30:00Z,30.3085,-88.1395,0.0,5.95,157.8,-9999.0,'1111122,1111122,1111122' 
DISL,ioos:station:DISL:CATA:1,2011-04-11T00:00:00Z,30.3085,-88.1395,0.0,5.72,157.2,-9999.0,'1111122,1111122,1111122' 
DISL,ioos:station:DISL:CATA:1,2011-04-11T00:30:00Z,30.3085,-88.1395,0.0,5.71,156.9,-9999.0,'1111122,1111122,1111122' 
DISL,ioos:station:DISL:CATA:1,2011-04-11T01:00:00Z,30.3085,-88.1395,0.0,6.29,156.3,-9999.0,'1111122,1111122,1111122' 
DISL,ioos:station:DISL:CATA:1,2011-04-11T01:30:00Z,30.3085,-88.1395,0.0,6.27,155.3,-9999.0,'1111122,1111122,1111122' 
DISL,ioos:station:DISL:CATA:1,2011-04-11T02:00:00Z,30.3085,-88.1395,0.0,6.47,155.2,-9999.0,'1111122,1111122,1111122' 
DISL,ioos:station:DISL:CATA:1,2011-04-11T02:30:00Z,30.3085,-88.1395,0.0,6.67,157.4,-9999.0,'1111122,1111122,1111122' 
DISL,ioos:station:DISL:CATA:1,2011-04-11T03:00:00Z,30.3085,-88.1395,0.0,6.58,155.8,-9999.0,'1111122,1111122,1111122' 
DISL,ioos:station:DISL:CATA:1,2011-04-11T03:30:00Z,30.3085,-88.1395,0.0,7.04,159.3,-9999.0,'1111122,1111122,1111122' 
DISL,ioos:station:DISL:CATA:1,2011-04-11T04:00:00Z,30.3085,-88.1395,0.0,6.84,159.5,-9999.0,'1111122,1111122,1111122' 
DISL,ioos:station:DISL:CATA:1,2011-04-11T04:30:00Z,30.3085,-88.1395,0.0,6.71,160.0,-9999.0,'1111122,1111122,1111122' 
DISL,ioos:station:DISL:CATA:1,2011-04-11T05:00:00Z,30.3085,-88.1395,0.0,7.47,164.2,-9999.0,'1111122,1111122,1111122' 
DISL,ioos:station:DISL:CATA:1,2011-04-11T05:30:00Z,30.3085,-88.1395,0.0,7.93,159.5,-9999.0,'1111122,1111122,1111122' 
DISL,ioos:station:DISL:CATA:1,2011-04-11T06:00:00Z,30.3085,-88.1395,0.0,8.1,161.2,-9999.0,'1111122,1111122,1111122' 
DISL,ioos:station:DISL:CATA:1,2011-04-11T06:30:00Z,30.3085,-88.1395,0.0,8.5,167.3,-9999.0,'1111122,1111122,1111122' 
DISL,ioos:station:DISL:CATA:1,2011-04-11T07:00:00Z,30.3085,-88.1395,0.0,8.56,166.4,-9999.0,'1111122,1111122,1111122' 
DISL,ioos:station:DISL:CATA:1,2011-04-11T07:30:00Z,30.3085,-88.1395,0.0,8.18,169.5,-9999.0,'1111122,1111122,1111122' 
DISL,ioos:station:DISL:CATA:1,2011-04-11T08:00:00Z,30.3085,-88.1395,0.0,7.77,169.6,-9999.0,'1111122,1111122,1111122' 
DISL,ioos:station:DISL:CATA:1,2011-04-11T08:30:00Z,30.3085,-88.1395,0.0,7.16,171.4,-9999.0,'1111122,1111122,1111122' 
DISL,ioos:station:DISL:CATA:1,2011-04-11T09:00:00Z,30.3085,-88.1395,0.0,7.15,172.1,-9999.0,'1111122,1111122,1111122' 
DISL,ioos:station:DISL:CATA:1,2011-04-11T09:30:00Z,30.3085,-88.1395,0.0,5.79,177.7,-9999.0,'1111122,1111122,1111122' 
DISL,ioos:station:DISL:CATA:1,2011-04-11T10:00:00Z,30.3085,-88.1395,0.0,5.86,170.9,-9999.0,'1111122,1111122,1111122' 
DISL,ioos:station:DISL:CATA:1,2011-04-11T10:30:00Z,30.3085,-88.1395,0.0,5.06,172.9,-9999.0,'1111122,1111122,1111122' 
DISL,ioos:station:DISL:CATA:1,2011-04-11T11:00:00Z,30.3085,-88.1395,0.0,4.96,173.3,-9999.0,'1111122,1111122,1111122' 
DISL,ioos:station:DISL:CATA:1,2011-04-11T11:30:00Z,30.3085,-88.1395,0.0,4.9,176.5,-9999.0,'1111122,1111122,1111122' 
DISL,ioos:station:DISL:CATA:1,2011-04-11T12:00:00Z,30.3085,-88.1395,0.0,4.62,186.7,-9999.0,'1111122,1111122,1111122' 
DISL,ioos:station:DISL:CATA:1,2011-04-11T12:30:00Z,30.3085,-88.1395,0.0,3.96,177.2,-9999.0,'1111122,1111122,1111122' 
DISL,ioos:station:DISL:CATA:1,2011-04-11T13:00:00Z,30.3085,-88.1395,0.0,4.97,164.9,-9999.0,'1111122,1111122,1111122' 
DISL,ioos:station:DISL:CATA:1,2011-04-11T13:30:00Z,30.3085,-88.1395,0.0,4.66,168.5,-9999.0,'1111122,1111122,1111122' 
DISL,ioos:station:DISL:CATA:1,2011-04-11T14:00:00Z,30.3085,-88.1395,0.0,3.38,181.5,-9999.0,'1111122,1111122,1111122' 
DISL,ioos:station:DISL:CATA:1,2011-04-11T14:30:00Z,30.3085,-88.1395,0.0,5.0,167.9,-9999.0,'1111122,1111122,1111122' 
DISL,ioos:station:DISL:CATA:1,2011-04-11T15:00:00Z,30.3085,-88.1395,0.0,5.59,174.3,-9999.0,'1111122,1111122,1111122' 
DISL,ioos:station:DISL:CATA:1,2011-04-11T15:30:00Z,30.3085,-88.1395,0.0,6.08,179.0,-9999.0,'1111122,1111122,1111122' 
DISL,ioos:station:DISL:CATA:1,2011-04-11T16:00:00Z,30.3085,-88.1395,0.0,4.74,193.8,-9999.0,'1111122,1111122,1111122' 
DISL,ioos:station:DISL:CATA:1,2011-04-11T16:30:00Z,30.3085,-88.1395,0.0,4.88,190.8,-9999.0,'1111122,1111122,1111122' 
DISL,ioos:station:DISL:CATA:1,2011-04-11T17:00:00Z,30.3085,-88.1395,0.0,5.97,180.4,-9999.0,'1111122,1111122,1111122' 
DISL,ioos:station:DISL:CATA:1,2011-04-11T17:30:00Z,30.3085,-88.1395,0.0,6.7,178.3,-9999.0,'1111122,1111122,1111122' 
DISL,ioos:station:DISL:CATA:1,2011-04-11T18:00:00Z,30.3085,-88.1395,0.0,6.5,183.4,-9999.0,'1111122,1111122,1111122' 
DISL,ioos:station:DISL:CATA:1,2011-04-11T18:30:00Z,30.3085,-88.1395,0.0,5.5,182.3,-9999.0,'1111122,1111122,1111122' 
DISL,ioos:station:DISL:CATA:1,2011-04-11T19:00:00Z,30.3085,-88.1395,0.0,5.74,184.8,-9999.0,'1111122,1111122,1111122' 
DISL,ioos:station:DISL:CATA:1,2011-04-11T19:30:00Z,30.3085,-88.1395,0.0,5.99,185.6,-9999.0,'1111122,1111122,1111122' 
DISL,ioos:station:DISL:CATA:1,2011-04-11T20:00:00Z,30.3085,-88.1395,0.0,6.72,174.6,-9999.0,'1111122,1111122,1111122' 
DISL,ioos:station:DISL:CATA:1,2011-04-11T20:30:00Z,30.3085,-88.1395,0.0,6.97,176.6,-9999.0,'1111122,1111122,1111122' 
DISL,ioos:station:DISL:CATA:1,2011-04-11T21:00:00Z,30.3085,-88.1395,0.0,6.77,180.4,-9999.0,'1111122,1111122,1111122' 
DISL,ioos:station:DISL:CATA:1,2011-04-11T21:30:00Z,30.3085,-88.1395,0.0,7.13,179.9,-9999.0,'1111122,1111122,1111122' 
DISL,ioos:station:DISL:CATA:1,2011-04-11T22:00:00Z,30.3085,-88.1395,0.0,9.36,172.3,-9999.0,'1111122,1111122,1111122' 
DISL,ioos:station:DISL:CATA:1,2011-04-11T22:30:00Z,30.3085,-88.1395,0.0,8.63,179.6,-9999.0,'1111122,1111122,1111122' 
DISL,ioos:station:DISL:CATA:1,2011-04-11T23:00:00Z,30.3085,-88.1395,0.0,8.25,184.8,-9999.0,'1111122,1111122,1111122' 
DISL,ioos:station:DISL:CATA:1,2011-04-11T23:30:00Z,30.3085,-88.1395,0.0,7.65,204.4,-9999.0,'1111122,1111122,1111122' 
DISL,ioos:station:DISL:CATA:1,2011-04-12T00:00:00Z,30.3085,-88.1395,0.0,9.36,209.0,-9999.0,'1111122,1111122,1111122' 
DISL,ioos:station:DISL:CATA:1,2011-04-12T00:30:00Z,30.3085,-88.1395,0.0,10.03,209.4,-9999.0,'1111122,1111122,1111122' 
DISL,ioos:station:DISL:CATA:1,2011-04-12T01:00:00Z,30.3085,-88.1395,0.0,10.25,212.1,-9999.0,'1111122,1111122,1111122' 
DISL,ioos:station:DISL:CATA:1,2011-04-12T01:30:00Z,30.3085,-88.1395,0.0,10.64,217.3,-9999.0,'1111122,1111122,1111122' 
DISL,ioos:station:DISL:CATA:1,2011-04-12T02:00:00Z,30.3085,-88.1395,0.0,10.0,219.9,-9999.0,'1111122,1111122,1111122' 
DISL,ioos:station:DISL:CATA:1,2011-04-12T02:30:00Z,30.3085,-88.1395,0.0,10.39,221.7,-9999.0,'1111122,1111122,1111122' 
DISL,ioos:station:DISL:CATA:1,2011-04-12T03:00:00Z,30.3085,-88.1395,0.0,11.27,229.0,-9999.0,'1111122,1111122,1111122' 
DISL,ioos:station:DISL:CATA:1,2011-04-12T03:30:00Z,30.3085,-88.1395,0.0,10.97,230.5,-9999.0,'1111122,1111122,1111122' 
DISL,ioos:station:DISL:CATA:1,2011-04-12T04:00:00Z,30.3085,-88.1395,0.0,10.75,323.1,-9999.0,'1111122,1111122,1111122' 
DISL,ioos:station:DISL:CATA:1,2011-04-12T04:30:00Z,30.3085,-88.1395,0.0,3.78,350.5,-9999.0,'1111122,1111122,1111122' 
DISL,ioos:station:DISL:CATA:1,2011-04-12T05:00:00Z,30.3085,-88.1395,0.0,2.73,341.6,-9999.0,'1111122,1111122,1111122' 
DISL,ioos:station:DISL:CATA:1,2011-04-12T05:30:00Z,30.3085,-88.1395,0.0,2.6,342.4,-9999.0,'1111122,1111122,1111122' 
DISL,ioos:station:DISL:CATA:1,2011-04-12T06:00:00Z,30.3085,-88.1395,0.0,2.67,318.1,-9999.0,'1111122,1111122,1111122' 
DISL,ioos:station:DISL:CATA:1,2011-04-12T06:30:00Z,30.3085,-88.1395,0.0,4.09,316.4,-9999.0,'1111122,1111122,1111122' 
DISL,ioos:station:DISL:CATA:1,2011-04-12T07:00:00Z,30.3085,-88.1395,0.0,6.06,311.4,-9999.0,'1111122,1111122,1111122' 
DISL,ioos:station:DISL:CATA:1,2011-04-12T07:30:00Z,30.3085,-88.1395,0.0,6.57,318.5,-9999.0,'1111122,1111122,1111122' 
DISL,ioos:station:DISL:CATA:1,2011-04-12T08:00:00Z,30.3085,-88.1395,0.0,7.27,322.2,-9999.0,'1111122,1111122,1111122' 
DISL,ioos:station:DISL:CATA:1,2011-04-12T08:30:00Z,30.3085,-88.1395,0.0,7.14,329.7,-9999.0,'1111122,1111122,1111122' 
DISL,ioos:station:DISL:CATA:1,2011-04-12T09:00:00Z,30.3085,-88.1395,0.0,7.75,331.5,-9999.0,'1111122,1111122,1111122' 
DISL,ioos:station:DISL:CATA:1,2011-04-12T09:30:00Z,30.3085,-88.1395,0.0,8.42,341.4,-9999.0,'1111122,1111122,1111122' 
DISL,ioos:station:DISL:CATA:1,2011-04-12T10:00:00Z,30.3085,-88.1395,0.0,9.4,343.6,-9999.0,'1111122,1111122,1111122' 
DISL,ioos:station:DISL:CATA:1,2011-04-12T10:30:00Z,30.3085,-88.1395,0.0,9.38,345.9,-9999.0,'1111122,1111122,1111122' 
DISL,ioos:station:DISL:CATA:1,2011-04-12T11:00:00Z,30.3085,-88.1395,0.0,8.08,347.0,-9999.0,'1111122,1111122,1111122' 
DISL,ioos:station:DISL:CATA:1,2011-04-12T11:30:00Z,30.3085,-88.1395,0.0,5.69,351.8,-9999.0,'1111122,1111122,1111122' 
DISL,ioos:station:DISL:CATA:1,2011-04-12T12:00:00Z,30.3085,-88.1395,0.0,4.96,350.5,-9999.0,'1111122,1111122,1111122' 
DISL,ioos:station:DISL:CATA:1,2011-04-12T12:30:00Z,30.3085,-88.1395,0.0,4.73,349.0,-9999.0,'1111122,1111122,1111122' 
DISL,ioos:station:DISL:CATA:1,2011-04-12T13:00:00Z,30.3085,-88.1395,0.0,6.04,344.6,-9999.0,'1111122,1111122,1111122' 
DISL,ioos:station:DISL:CATA:1,2011-04-12T13:30:00Z,30.3085,-88.1395,0.0,6.27,349.5,-9999.0,'1111122,1111122,1111122' 
DISL,ioos:station:DISL:CATA:1,2011-04-12T14:00:00Z,30.3085,-88.1395,0.0,4.68,353.7,-9999.0,'1111122,1111122,1111122' 
DISL,ioos:station:DISL:CATA:1,2011-04-12T14:30:00Z,30.3085,-88.1395,0.0,5.89,350.0,-9999.0,'1111122,1111122,1111122' 
DISL,ioos:station:DISL:CATA:1,2011-04-12T15:00:00Z,30.3085,-88.1395,0.0,6.38,3.553,-9999.0,'1111122,1111122,1111122' 
DISL,ioos:station:DISL:CATA:1,2011-04-12T15:30:00Z,30.3085,-88.1395,0.0,6.51,357.1,-9999.0,'1111122,1111122,1111122' 
DISL,ioos:station:DISL:CATA:1,2011-04-12T16:00:00Z,30.3085,-88.1395,0.0,5.64,0.599,-9999.0,'1111122,1111122,1111122' 
DISL,ioos:station:DISL:CATA:1,2011-04-12T16:30:00Z,30.3085,-88.1395,0.0,6.08,359.4,-9999.0,'1111122,1111122,1111122' 
DISL,ioos:station:DISL:CATA:1,2011-04-12T17:00:00Z,30.3085,-88.1395,0.0,4.74,0.071,-9999.0,'1111122,1111122,1111122' 
DISL,ioos:station:DISL:CATA:1,2011-04-12T17:30:00Z,30.3085,-88.1395,0.0,3.73,3.659,-9999.0,'1111122,1111122,1111122' 
DISL,ioos:station:DISL:CATA:1,2011-04-12T18:00:00Z,30.3085,-88.1395,0.0,4.38,60.73,-9999.0,'1111122,1111122,1111122' 
DISL,ioos:station:DISL:CATA:1,2011-04-12T18:30:00Z,30.3085,-88.1395,0.0,4.26,60.53,-9999.0,'1111122,1111122,1111122' 
DISL,ioos:station:DISL:CATA:1,2011-04-12T19:00:00Z,30.3085,-88.1395,0.0,3.77,69.8,-9999.0,'1111122,1111122,1111122' 
DISL,ioos:station:DISL:CATA:1,2011-04-12T19:30:00Z,30.3085,-88.1395,0.0,3.79,59.88,-9999.0,'1111122,1111122,1111122' 
DISL,ioos:station:DISL:CATA:1,2011-04-12T20:00:00Z,30.3085,-88.1395,0.0,2.36,110.5,-9999.0,'1111122,1111122,1111122' 
DISL,ioos:station:DISL:CATA:1,2011-04-12T20:30:00Z,30.3085,-88.1395,0.0,2.71,143.4,-9999.0,'1111122,1111122,1111122' 
DISL,ioos:station:DISL:CATA:1,2011-04-12T21:00:00Z,30.3085,-88.1395,0.0,3.84,187.2,-9999.0,'1111122,1111122,1111122' 
DISL,ioos:station:DISL:CATA:1,2011-04-12T21:30:00Z,30.3085,-88.1395,0.0,5.44,194.2,-9999.0,'1111122,1111122,1111122' 
DISL,ioos:station:DISL:CATA:1,2011-04-12T22:00:00Z,30.3085,-88.1395,0.0,5.58,202.1,-9999.0,'1111122,1111122,1111122' 